SL-3 R/B, 7210

Orbit data source: Space-Track

SL-3 R/B, 7210 is space debris in LEO originally from a launch on Tue, 05 Mar 1974 UTC launched from the Plesetsk Missile And Space Complex (PKMTR). Debris objects in space refer to the collection of defunct objects orbiting the Earth. Examples of debris include non-operational satellites, rocket bodies, and fragments generated from explosions, collisions, or faulty payload assembly.

Loading next visibility...
Identifier
7210, 1974-011B
Orbit
LEO
Country
Flag of CISCIS
Related business
Manufacturer
Progress
Mission
Spacecraft
Bus & Motor
BLOK-E, Unknown motor
Mass
1,440 kg wet, 1,440 kg dry
Launch date (UTC)
1974-03-05 (52 years ago)
Launch vehicle
Unknown
Launch site
Plesetsk Missile And Space Complex (PKMTR)
Object type
Payload
Rocket body
Debris
Shape & HBR
Unknown
Radar Cross Section
Large (>1 m²)

Expand to show TLE details & history
Last TLE update: 2 days ago

TLE from 2 days ago
0 SL-3 R/B
1  7210U 74011B   26171.42118000 -.00000058  00000-0 -36218-4 0  9995
2  7210  81.2362  65.0203 0080935  19.4773 340.9461 14.13643309694444
Epoch: 2026-06-20T10:06Z
TLE epoch observation values (Epoch: 2026-06-20T10:06:29.952Z)
Latitude
0.00004°
Longitude
4.75946°
Altitude
794.603 km
Speed
7.485 km/s
True Right ascension
04h 20m 04s
True Declination
0° 00' 00"
Sunlit
Object was in daylight at epoch
Visualization orbit readout
Latitude
Unknown
Longitude
Unknown
Altitude
Unknown
Speed
Unknown
Apparent Right ascension
Unknown
Apparent Declination
Unknown
Sunlit
N/A
Visualization observer readout
Local Sidereal Time
23:07:56
Azimuth
Unknown
Elevation
Unknown
Doppler factor
Unknown
Orbital elements
Apogee altitude
902.554 km
Perigee altitude
785.647 km
Semi-major axis
7,222.238 km
Eccentricity
0.00809
Inclination
81.2362°
RAAN
65.0203°
Arg. of periapsis
19.4773°
True anomaly
340.64041°
Mean anomaly
340.9461°
Eccentric anomaly
340.79355°
Mean motion
3.53619 °/min
Orbital period
101.8 mins
BSTAR
-0.000036218
Loading maneuver chart data...
Computing Atmospheric mass density...
Loading historical data...
Loading historical data...
Loading historical data...
Loading historical data...
Loading historical data...
Loading historical data...
Loading historical data...
Other satellites on launch #11 in the year 1974 (1974-03-05 UTC)

Documentation

Showing up to 5 results
|